Location: ?????
(32.7281°N, 34.9563°E)
Time: 00:29:10
(UTC+00:00)

Delta 2 Rocket - Pass Details

Date: 29 October 2020
Orbit: 415 x 806 km, 35.6° (Epoch: 25 November)

Event Time Altitude Azimuth Distance (km) Brightness Sun altitude
Rises 15:29:49 0° 285° (WNW) 2,974 8.4 -8.6°
Reaches altitude 10° 15:32:05 10° 284° (WNW) 2,122 7.5 -9.1°
Maximum altitude 15:37:06 76° 200° (SSW) 758 4.1 -10.1°
Drops below altitude 10° 15:42:38 10° 115° (ESE) 2,324 6.0 -11.3°
Enters shadow 15:42:49 - 114° (ESE) 2,389 6.1 -11.3°
